sat.trackr.live / text

‹ back to catalog

ONEWEB-0532

NORAD 55140 · 2023-004A

PAYLOAD ACTIVE UNKNOWN

§ Identity

Operator
Country
UK
Launch date
2023-01-10
Launch site
AFETR
Launch vehicle
Mass (kg)
RCS (m²)

Purposes: comms

External: N2YO · Heavens-Above · Gunter

§ Orbital elements

Epoch: 2026-09-19T22:51:53.699040Z

Period
109.29 min
Inclination
87.9199°
Eccentricity
0.0001832
Mean motion
13.17648889 rev/d
Perigee alt
1,192.3 km
Apogee alt
1,195.1 km
Semi-major
7,571.9 km
B*
-7.4348e-4
RAAN
347.0449°
Arg perigee
109.8862°
Mean anomaly
250.2467°
Rev number
18,006

§ Raw data

ONEWEB-05321 55140U 23004A   26262.95270485 -.00000276  00000+0 -74348-3 0  99972 55140  87.9199 347.0449 0001832 109.8862 250.2467 13.17648889180065

JSON: /api/v1/satellites/55140 · /tle

For live sub-satellite position, see the globe view (requires WebGL).

§ Visibility from observer

Set your observer location to see the next 7 days of passes ≥ 10°. The values pass through the URL so the page stays shareable.

No JS? Fill the form by hand. The geolocation button needs JavaScript.